﻿測定場所 (Monitoring sites),日付 (Measurement date),時間 (Measurement time),線量率 最大値 (max) μGy/h,線量率 最小値 (min) μGy/h,線量率 平均値 (average) μGy/h,
江戸川 (Edogawa),2012-08-05,23:01～24:00,0.128,0.112,0.120,
江戸川 (Edogawa),2012-08-05,22:01～23:00,0.128,0.115,0.121,
江戸川 (Edogawa),2012-08-05,21:01～22:00,0.128,0.114,0.121,
江戸川 (Edogawa),2012-08-05,20:01～21:00,0.128,0.114,0.121,
江戸川 (Edogawa),2012-08-05,19:01～20:00,0.129,0.113,0.121,
江戸川 (Edogawa),2012-08-05,18:01～19:00,0.127,0.114,0.120,
江戸川 (Edogawa),2012-08-05,17:01～18:00,0.129,0.114,0.121,
江戸川 (Edogawa),2012-08-05,16:01～17:00,0.129,0.114,0.121,
江戸川 (Edogawa),2012-08-05,15:01～16:00,0.127,0.114,0.121,
江戸川 (Edogawa),2012-08-05,14:01～15:00,0.128,0.113,0.121,
江戸川 (Edogawa),2012-08-05,13:01～14:00,0.128,0.116,0.121,
江戸川 (Edogawa),2012-08-05,12:01～13:00,0.127,0.114,0.122,
江戸川 (Edogawa),2012-08-05,11:01～12:00,0.128,0.115,0.121,
江戸川 (Edogawa),2012-08-05,10:01～11:00,0.127,0.112,0.121,
江戸川 (Edogawa),2012-08-05,09:01～10:00,0.128,0.115,0.121,
江戸川 (Edogawa),2012-08-05,08:01～09:00,0.127,0.113,0.120,
江戸川 (Edogawa),2012-08-05,07:01～08:00,0.128,0.112,0.120,
江戸川 (Edogawa),2012-08-05,06:01～07:00,0.130,0.114,0.121,
江戸川 (Edogawa),2012-08-05,05:01～06:00,0.127,0.113,0.121,
江戸川 (Edogawa),2012-08-05,04:01～05:00,0.127,0.111,0.120,
江戸川 (Edogawa),2012-08-05,03:01～04:00,0.129,0.113,0.121,
江戸川 (Edogawa),2012-08-05,02:01～03:00,0.130,0.115,0.121,
江戸川 (Edogawa),2012-08-05,01:01～02:00,0.128,0.115,0.120,
江戸川 (Edogawa),2012-08-05,00:01～01:00,0.126,0.115,0.120,
江戸川 (Edogawa),2012-08-04,23:01～24:00,0.127,0.115,0.120,
江戸川 (Edogawa),2012-08-04,22:01～23:00,0.125,0.110,0.118,
江戸川 (Edogawa),2012-08-04,21:01～22:00,0.125,0.109,0.117,
江戸川 (Edogawa),2012-08-04,20:01～21:00,0.125,0.106,0.115,
江戸川 (Edogawa),2012-08-04,19:01～20:00,0.123,0.108,0.115,
江戸川 (Edogawa),2012-08-04,18:01～19:00,0.122,0.110,0.117,
江戸川 (Edogawa),2012-08-04,17:01～18:00,0.129,0.114,0.119,
江戸川 (Edogawa),2012-08-04,16:01～17:00,0.127,0.114,0.119,
江戸川 (Edogawa),2012-08-04,15:01～16:00,0.128,0.114,0.121,
江戸川 (Edogawa),2012-08-04,14:01～15:00,0.129,0.113,0.121,
江戸川 (Edogawa),2012-08-04,13:01～14:00,0.126,0.114,0.120,
江戸川 (Edogawa),2012-08-04,12:01～13:00,0.129,0.114,0.121,
江戸川 (Edogawa),2012-08-04,11:01～12:00,0.127,0.113,0.120,
江戸川 (Edogawa),2012-08-04,10:01～11:00,0.128,0.114,0.120,
江戸川 (Edogawa),2012-08-04,09:01～10:00,0.127,0.113,0.120,
江戸川 (Edogawa),2012-08-04,08:01～09:00,0.125,0.114,0.121,
江戸川 (Edogawa),2012-08-04,07:01～08:00,0.126,0.112,0.120,
江戸川 (Edogawa),2012-08-04,06:01～07:00,0.126,0.115,0.121,
江戸川 (Edogawa),2012-08-04,05:01～06:00,0.128,0.112,0.121,
江戸川 (Edogawa),2012-08-04,04:01～05:00,0.132,0.114,0.121,
江戸川 (Edogawa),2012-08-04,03:01～04:00,0.128,0.114,0.121,
江戸川 (Edogawa),2012-08-04,02:01～03:00,0.131,0.115,0.121,
江戸川 (Edogawa),2012-08-04,01:01～02:00,0.127,0.114,0.121,
江戸川 (Edogawa),2012-08-04,00:01～01:00,0.128,0.115,0.121,
江戸川 (Edogawa),2012-08-03,23:01～24:00,0.126,0.114,0.120,
江戸川 (Edogawa),2012-08-03,22:01～23:00,0.127,0.114,0.121,
江戸川 (Edogawa),2012-08-03,21:01～22:00,0.128,0.113,0.120,
江戸川 (Edogawa),2012-08-03,20:01～21:00,0.128,0.112,0.120,
江戸川 (Edogawa),2012-08-03,19:01～20:00,0.127,0.114,0.121,
江戸川 (Edogawa),2012-08-03,18:01～19:00,0.128,0.113,0.120,
江戸川 (Edogawa),2012-08-03,17:01～18:00,0.128,0.113,0.120,
江戸川 (Edogawa),2012-08-03,16:01～17:00,0.126,0.110,0.118,
江戸川 (Edogawa),2012-08-03,15:01～16:00,0.124,0.109,0.116,
江戸川 (Edogawa),2012-08-03,14:01～15:00,0.122,0.109,0.117,
江戸川 (Edogawa),2012-08-03,13:01～14:00,0.127,0.111,0.117,
江戸川 (Edogawa),2012-08-03,12:01～13:00,0.125,0.109,0.117,
江戸川 (Edogawa),2012-08-03,11:01～12:00,0.123,0.109,0.117,
江戸川 (Edogawa),2012-08-03,10:01～11:00,0.123,0.109,0.117,
江戸川 (Edogawa),2012-08-03,09:01～10:00,0.124,0.109,0.117,
江戸川 (Edogawa),2012-08-03,08:01～09:00,0.124,0.107,0.117,
江戸川 (Edogawa),2012-08-03,07:01～08:00,0.127,0.111,0.120,
江戸川 (Edogawa),2012-08-03,06:01～07:00,0.127,0.114,0.120,
江戸川 (Edogawa),2012-08-03,05:01～06:00,0.125,0.113,0.120,
江戸川 (Edogawa),2012-08-03,04:01～05:00,0.127,0.112,0.120,
江戸川 (Edogawa),2012-08-03,03:01～04:00,0.128,0.111,0.120,
江戸川 (Edogawa),2012-08-03,02:01～03:00,0.127,0.113,0.120,
江戸川 (Edogawa),2012-08-03,01:01～02:00,0.126,0.114,0.120,
江戸川 (Edogawa),2012-08-03,00:01～01:00,0.129,0.112,0.120,
江戸川 (Edogawa),2012-08-02,23:01～24:00,0.125,0.115,0.120,
江戸川 (Edogawa),2012-08-02,22:01～23:00,0.127,0.114,0.120,
江戸川 (Edogawa),2012-08-02,21:01～22:00,0.128,0.113,0.120,
江戸川 (Edogawa),2012-08-02,20:01～21:00,0.128,0.112,0.120,
江戸川 (Edogawa),2012-08-02,19:01～20:00,0.125,0.114,0.119,
江戸川 (Edogawa),2012-08-02,18:01～19:00,0.127,0.112,0.119,
江戸川 (Edogawa),2012-08-02,17:01～18:00,0.128,0.113,0.120,
江戸川 (Edogawa),2012-08-02,16:01～17:00,0.127,0.111,0.120,
江戸川 (Edogawa),2012-08-02,15:01～16:00,0.127,0.114,0.120,
江戸川 (Edogawa),2012-08-02,14:01～15:00,0.125,0.112,0.120,
江戸川 (Edogawa),2012-08-02,13:01～14:00,0.125,0.113,0.119,
江戸川 (Edogawa),2012-08-02,12:01～13:00,0.128,0.114,0.120,
江戸川 (Edogawa),2012-08-02,11:01～12:00,0.126,0.113,0.120,
江戸川 (Edogawa),2012-08-02,10:01～11:00,0.127,0.114,0.120,
江戸川 (Edogawa),2012-08-02,09:01～10:00,0.127,0.113,0.120,
江戸川 (Edogawa),2012-08-02,08:01～09:00,0.126,0.114,0.119,
江戸川 (Edogawa),2012-08-02,07:01～08:00,0.125,0.114,0.119,
江戸川 (Edogawa),2012-08-02,06:01～07:00,0.128,0.111,0.120,
江戸川 (Edogawa),2012-08-02,05:01～06:00,0.125,0.112,0.120,
江戸川 (Edogawa),2012-08-02,04:01～05:00,0.126,0.113,0.119,
江戸川 (Edogawa),2012-08-02,03:01～04:00,0.125,0.113,0.119,
江戸川 (Edogawa),2012-08-02,02:01～03:00,0.126,0.112,0.120,
江戸川 (Edogawa),2012-08-02,01:01～02:00,0.126,0.111,0.120,
江戸川 (Edogawa),2012-08-02,00:01～01:00,0.125,0.113,0.120,
江戸川 (Edogawa),2012-08-01,23:01～24:00,0.125,0.113,0.120,
江戸川 (Edogawa),2012-08-01,22:01～23:00,0.127,0.113,0.119,
江戸川 (Edogawa),2012-08-01,21:01～22:00,0.128,0.112,0.120,
江戸川 (Edogawa),2012-08-01,20:01～21:00,0.125,0.113,0.120,
江戸川 (Edogawa),2012-08-01,19:01～20:00,0.128,0.114,0.120,
江戸川 (Edogawa),2012-08-01,18:01～19:00,0.126,0.112,0.119,
江戸川 (Edogawa),2012-08-01,17:01～18:00,0.129,0.113,0.120,
江戸川 (Edogawa),2012-08-01,16:01～17:00,0.127,0.113,0.120,
江戸川 (Edogawa),2012-08-01,15:01～16:00,0.127,0.112,0.119,
江戸川 (Edogawa),2012-08-01,14:01～15:00,0.126,0.113,0.119,
江戸川 (Edogawa),2012-08-01,13:01～14:00,0.126,0.114,0.120,
江戸川 (Edogawa),2012-08-01,12:01～13:00,0.128,0.111,0.120,
江戸川 (Edogawa),2012-08-01,11:01～12:00,0.127,0.115,0.120,
江戸川 (Edogawa),2012-08-01,10:01～11:00,0.126,0.114,0.120,
江戸川 (Edogawa),2012-08-01,09:01～10:00,0.126,0.112,0.120,
江戸川 (Edogawa),2012-08-01,08:01～09:00,0.126,0.110,0.119,
江戸川 (Edogawa),2012-08-01,07:01～08:00,0.127,0.115,0.120,
江戸川 (Edogawa),2012-08-01,06:01～07:00,0.125,0.112,0.120,
江戸川 (Edogawa),2012-08-01,05:01～06:00,0.128,0.113,0.120,
江戸川 (Edogawa),2012-08-01,04:01～05:00,0.126,0.114,0.120,
江戸川 (Edogawa),2012-08-01,03:01～04:00,0.124,0.113,0.120,
江戸川 (Edogawa),2012-08-01,02:01～03:00,0.127,0.112,0.120,
江戸川 (Edogawa),2012-08-01,01:01～02:00,0.125,0.114,0.119,
江戸川 (Edogawa),2012-08-01,00:01～01:00,0.129,0.111,0.120,
江戸川 (Edogawa),2012-07-31,23:01～24:00,0.130,0.112,0.120,
江戸川 (Edogawa),2012-07-31,22:01～23:00,0.126,0.111,0.120,
江戸川 (Edogawa),2012-07-31,21:01～22:00,0.128,0.113,0.120,
江戸川 (Edogawa),2012-07-31,20:01～21:00,0.126,0.112,0.120,
江戸川 (Edogawa),2012-07-31,19:01～20:00,0.124,0.114,0.120,
江戸川 (Edogawa),2012-07-31,18:01～19:00,0.126,0.112,0.119,
江戸川 (Edogawa),2012-07-31,17:01～18:00,0.126,0.114,0.120,
江戸川 (Edogawa),2012-07-31,16:01～17:00,0.125,0.112,0.119,
江戸川 (Edogawa),2012-07-31,15:01～16:00,0.128,0.112,0.119,
江戸川 (Edogawa),2012-07-31,14:01～15:00,0.127,0.112,0.120,
江戸川 (Edogawa),2012-07-31,13:01～14:00,0.126,0.114,0.120,
江戸川 (Edogawa),2012-07-31,12:01～13:00,0.127,0.113,0.120,
江戸川 (Edogawa),2012-07-31,11:01～12:00,0.126,0.112,0.119,
江戸川 (Edogawa),2012-07-31,10:01～11:00,0.125,0.111,0.119,
江戸川 (Edogawa),2012-07-31,09:01～10:00,0.128,0.114,0.120,
江戸川 (Edogawa),2012-07-31,08:01～09:00,0.128,0.112,0.120,
江戸川 (Edogawa),2012-07-31,07:01～08:00,0.125,0.113,0.119,
江戸川 (Edogawa),2012-07-31,06:01～07:00,0.127,0.111,0.119,
江戸川 (Edogawa),2012-07-31,05:01～06:00,0.126,0.113,0.119,
江戸川 (Edogawa),2012-07-31,04:01～05:00,0.125,0.113,0.119,
江戸川 (Edogawa),2012-07-31,03:01～04:00,0.128,0.112,0.119,
江戸川 (Edogawa),2012-07-31,02:01～03:00,0.127,0.110,0.119,
江戸川 (Edogawa),2012-07-31,01:01～02:00,0.128,0.114,0.120,
江戸川 (Edogawa),2012-07-31,00:01～01:00,0.127,0.113,0.119,
江戸川 (Edogawa),2012-07-30,23:01～24:00,0.125,0.113,0.119,
江戸川 (Edogawa),2012-07-30,22:01～23:00,0.126,0.111,0.119,
江戸川 (Edogawa),2012-07-30,21:01～22:00,0.126,0.112,0.120,
江戸川 (Edogawa),2012-07-30,20:01～21:00,0.127,0.112,0.119,
江戸川 (Edogawa),2012-07-30,19:01～20:00,0.128,0.112,0.119,
江戸川 (Edogawa),2012-07-30,18:01～19:00,0.127,0.111,0.119,
江戸川 (Edogawa),2012-07-30,17:01～18:00,0.126,0.112,0.119,
江戸川 (Edogawa),2012-07-30,16:01～17:00,0.125,0.112,0.119,
江戸川 (Edogawa),2012-07-30,15:01～16:00,0.129,0.111,0.119,
江戸川 (Edogawa),2012-07-30,14:01～15:00,0.125,0.113,0.119,
江戸川 (Edogawa),2012-07-30,13:01～14:00,0.126,0.112,0.119,
江戸川 (Edogawa),2012-07-30,12:01～13:00,0.125,0.111,0.119,
江戸川 (Edogawa),2012-07-30,11:01～12:00,0.125,0.114,0.119,
江戸川 (Edogawa),2012-07-30,10:01～11:00,0.128,0.112,0.119,
江戸川 (Edogawa),2012-07-30,09:01～10:00,0.124,0.112,0.119,
江戸川 (Edogawa),2012-07-30,08:01～09:00,0.124,0.112,0.119,
江戸川 (Edogawa),2012-07-30,07:01～08:00,0.124,0.114,0.119,
江戸川 (Edogawa),2012-07-30,06:01～07:00,0.129,0.111,0.119,
江戸川 (Edogawa),2012-07-30,05:01～06:00,0.124,0.111,0.119,
江戸川 (Edogawa),2012-07-30,04:01～05:00,0.125,0.112,0.119,
江戸川 (Edogawa),2012-07-30,03:01～04:00,0.123,0.114,0.118,
江戸川 (Edogawa),2012-07-30,02:01～03:00,0.126,0.111,0.120,
江戸川 (Edogawa),2012-07-30,01:01～02:00,0.125,0.114,0.119,
江戸川 (Edogawa),2012-07-30,00:01～01:00,0.126,0.110,0.119,
